Zurück zum Katalog

COSMOS 2251 DEB

AktivVLEO
NORAD 34856·DEBRIS·🇷🇺 Russia

Gestartet Jun 16, 1993 von Plesetsk Cosmodrome

Loading…

Nächste Überflüge (nächste 24 Stunden)

TLE

AlterndSource: Space-Track

Epoche: Sep 13, 2026, 00:15 UTC

1 34856U 93036ACA 26256.01053436  .00027210  00000-0  12148-2 0  9990
2 34856  74.0021 234.0851 0030332 293.9919 123.5041 15.20836860932625

Verfolge COSMOS 2251 DEB in Echtzeit mit AllMySat

Download on the App Store